Date String (YYYY-MM-DD hh:mm:ss) UTC,Instrument flags,Ambient pressure (hPa),Sample flow (lpm),Bypass flow (lpm),Sample temperature (°C),Ambient temperature (°C),ASC tube jacket temperature (°C),LED temperature (°C),Box temperature (°C),Sample RH (%),Span deviation,Mass concentration (μg/m³),Mass concentration (μg/m³),Mass concentration (μg/m³)
DateTimeUTC,F1_M11,P_M11,Q1_M11,Q2_M11,T1_M11,T2_M11,T3_M11,T4_M11,T5_M11,U1_M11,ZSPAN_M11,X2_M11,X0_M11,X1_M11
2022-06-05 08:00:00,,0819.9,5.01,0.00,30.0,28.8,00.0,38.9,31.9,17.2,0000.0,0003.91,0013.15,0003.16
2022-06-05 08:01:00,,0819.8,4.99,0.00,30.0,28.8,00.0,38.9,31.9,17.7,0000.0,0003.90,0012.93,0003.15
2022-06-05 08:02:00,,0819.9,5.00,0.00,30.0,28.8,00.0,38.9,31.9,17.8,0000.0,0003.94,0012.28,0003.13
2022-06-05 08:03:00,,0819.9,5.01,0.00,30.0,28.8,00.0,38.9,31.9,17.9,0000.0,0004.01,0011.92,0003.13
2022-06-05 08:04:00,,0819.9,5.00,0.00,30.0,28.8,00.0,38.9,31.9,17.8,0000.0,0004.03,0012.38,0003.13
2022-06-05 08:05:00,,0819.9,4.99,0.00,30.0,28.8,00.0,38.9,31.9,17.6,0000.0,0004.05,0012.83,0003.14
2022-06-05 08:06:00,,0819.8,5.00,0.00,30.0,28.8,00.0,38.9,31.9,17.2,0000.0,0004.00,0012.35,0003.13
2022-06-05 08:07:00,,0819.8,5.01,0.00,30.0,28.8,00.0,38.9,31.9,17.0,0000.0,0003.94,0011.86,0003.12
2022-06-05 08:08:00,,0819.8,4.99,0.00,30.0,28.8,00.0,38.9,31.9,17.0,0000.0,0004.03,0012.09,0003.12
2022-06-05 08:09:00,,0819.8,5.00,0.00,30.0,28.8,00.0,38.9,31.9,16.9,0000.0,0004.05,0011.76,0003.11
2022-06-05 08:10:00,,0819.8,5.00,0.00,30.0,28.8,00.0,38.9,31.9,17.0,0000.0,0004.03,0011.07,0003.09
2022-06-05 08:11:00,,0819.8,4.99,0.00,30.0,28.8,00.0,38.9,31.9,16.8,0000.0,0004.05,0010.19,0003.07
2022-06-05 08:12:00,,0819.8,5.00,0.00,30.0,28.8,00.0,38.9,31.9,16.6,0000.0,0004.04,0009.92,0003.05
2022-06-05 08:13:00,,0819.8,5.00,0.00,30.0,28.8,00.0,38.9,31.9,16.8,0000.0,0004.03,0009.88,0003.05
2022-06-05 08:14:00,,0819.9,5.01,0.00,30.0,28.8,00.0,38.9,31.9,18.0,0000.0,0003.96,0010.05,0003.04
2022-06-05 08:15:00,,0819.8,4.99,0.00,30.0,28.8,00.0,38.9,31.9,17.7,0000.0,0003.93,0009.37,0003.03
2022-06-05 08:16:00,,0819.8,5.02,0.00,30.0,28.8,00.0,38.9,31.9,17.1,0000.0,0003.94,0008.64,0003.01
2022-06-05 08:17:00,,0819.8,4.99,0.00,30.0,28.8,00.0,38.9,31.9,16.8,0000.0,0003.99,0008.87,0003.02
2022-06-05 08:18:00,,0819.8,4.99,0.00,30.0,28.8,00.0,38.9,31.9,16.4,0000.0,0004.01,0009.51,0003.02
2022-06-05 08:19:00,,0819.8,5.01,0.00,30.0,28.8,00.0,38.9,31.9,17.8,0000.0,0003.99,0009.82,0003.03
2022-06-05 08:20:00,,0819.8,5.00,0.00,30.0,28.8,00.0,38.9,31.9,17.0,0000.0,0003.95,0009.80,0003.02
2022-06-05 08:21:00,,0819.8,5.00,0.00,30.0,28.8,00.0,38.9,31.9,16.8,0000.0,0003.94,0009.79,0003.02
2022-06-05 08:22:00,,0819.8,5.00,0.00,30.0,28.8,00.0,38.9,31.9,18.0,0000.0,0003.94,0009.87,0003.05
2022-06-05 08:23:00,,0819.9,5.01,0.00,30.0,28.8,00.0,38.9,31.9,18.0,0000.0,0003.98,0009.92,0003.08
2022-06-05 08:24:00,,0819.8,5.00,0.00,30.0,28.8,00.0,38.9,31.9,18.1,0000.0,0003.95,0009.85,0003.08
2022-06-05 08:25:00,,0819.8,4.99,0.00,30.0,28.8,00.0,38.9,31.9,17.9,0000.0,0003.98,0009.73,0003.07
2022-06-05 08:26:00,,0819.8,5.00,0.00,30.0,28.8,00.0,38.9,31.9,16.9,0000.0,0003.99,0009.53,0003.07
2022-06-05 08:27:00,,0819.8,5.01,0.00,30.0,28.8,00.0,38.9,31.9,17.1,0000.0,0003.96,0009.42,0003.06
2022-06-05 08:28:00,,0819.8,5.00,0.00,30.0,28.8,00.0,38.9,31.9,16.9,0000.0,0003.96,0009.31,0003.02
2022-06-05 08:29:00,,0819.8,4.99,0.00,30.0,28.8,00.0,38.9,31.9,17.0,0000.0,0003.99,0008.95,0003.03
2022-06-05 08:30:00,,0819.8,5.00,0.00,30.0,28.8,00.0,38.9,31.9,17.0,0000.0,0003.98,0008.96,0003.03
2022-06-05 08:31:00,,0819.8,5.01,0.00,30.0,28.9,00.0,38.9,31.9,16.5,0000.0,0004.00,0008.89,0003.02
2022-06-05 08:32:00,,0819.7,5.00,0.00,30.0,28.9,00.0,38.9,31.9,16.5,0000.0,0003.99,0008.83,0003.01
2022-06-05 08:33:00,,0819.7,5.00,0.00,30.0,28.9,00.0,38.9,31.9,16.5,0000.0,0003.99,0008.78,0003.00
2022-06-05 08:34:00,,0819.7,5.00,0.00,30.0,28.9,00.0,38.9,31.9,16.6,0000.0,0003.96,0008.71,0002.98
2022-06-05 08:35:00,,0819.7,5.00,0.00,30.0,28.9,00.0,39.0,31.9,16.6,0000.0,0003.94,0008.64,0002.96
2022-06-05 08:36:00,,0819.7,4.99,0.00,30.0,28.9,00.0,38.9,31.9,16.6,0000.0,0003.87,0008.39,0002.94
2022-06-05 08:37:00,,0819.7,4.99,0.00,30.0,28.9,00.0,38.9,31.9,16.6,0000.0,0003.83,0008.27,0002.93
2022-06-05 08:38:00,,0819.7,5.00,0.00,30.0,28.9,00.0,38.9,31.9,16.5,0000.0,0003.88,0008.45,0002.94
2022-06-05 08:39:00,,0819.7,5.01,0.00,30.0,28.9,00.0,39.0,31.9,16.7,0000.0,0003.88,0008.45,0002.97
2022-06-05 08:40:00,,0819.7,4.99,0.00,30.0,28.9,00.0,39.0,31.9,16.6,0000.0,0003.90,0008.51,0002.96
2022-06-05 08:41:00,,0819.7,4.99,0.00,30.0,28.9,00.0,39.0,31.9,16.8,0000.0,0003.95,0008.92,0002.97
2022-06-05 08:42:00,,0819.7,5.01,0.00,30.1,28.9,00.0,39.0,31.9,17.0,0000.0,0003.96,0008.94,0002.96
2022-06-05 08:43:00,,0819.7,5.01,0.00,30.1,28.9,00.0,39.0,31.9,16.7,0000.0,0003.98,0008.99,0002.96
2022-06-05 08:44:00,,0819.6,4.99,0.00,30.1,28.9,00.0,39.0,31.9,16.7,0000.0,0004.00,0008.95,0002.96
2022-06-05 08:45:00,,0819.6,5.00,0.00,30.1,28.9,00.0,39.0,31.9,16.5,0000.0,0004.02,0008.98,0002.96
2022-06-05 08:46:00,,0819.6,5.01,0.00,30.1,28.9,00.0,39.0,31.9,16.6,0000.0,0004.06,0009.32,0002.97
2022-06-05 08:47:00,,0819.6,4.99,0.00,30.0,28.9,00.0,39.0,31.9,16.6,0000.0,0004.09,0009.66,0002.98
2022-06-05 08:48:00,,0819.6,5.00,0.00,30.0,28.9,00.0,39.0,31.9,16.6,0000.0,0004.15,0009.99,0002.99
2022-06-05 08:49:00,,0819.7,5.01,0.00,30.1,28.9,00.0,39.0,31.9,17.0,0000.0,0004.15,0009.96,0002.99
2022-06-05 08:50:00,,0819.6,4.99,0.00,30.1,28.9,00.0,39.0,31.9,17.4,0000.0,0004.09,0009.83,0002.98
2022-06-05 08:51:00,,0819.6,4.99,0.00,30.1,28.9,00.0,39.0,31.9,17.4,0000.0,0004.05,0009.66,0002.98
2022-06-05 08:52:00,,0819.5,5.01,0.00,30.1,28.9,00.0,39.0,31.9,16.4,0000.0,0004.05,0009.15,0002.99
2022-06-05 08:53:00,,0819.5,5.00,0.00,30.1,28.9,00.0,39.0,31.9,16.2,0000.0,0004.04,0008.86,0002.99
2022-06-05 08:54:00,,0819.5,5.00,0.00,30.1,28.9,00.0,39.0,31.9,16.1,0000.0,0004.05,0009.23,0002.97
2022-06-05 08:55:00,,0819.6,5.00,0.00,30.1,28.9,00.0,39.0,31.9,16.2,0000.0,0004.11,0009.67,0002.98
2022-06-05 08:56:00,,0819.6,5.01,0.00,30.1,28.9,00.0,39.0,31.9,16.6,0000.0,0004.06,0009.74,0002.96
2022-06-05 08:57:00,,0819.6,4.99,0.00,30.1,28.9,00.0,39.0,31.9,16.9,0000.0,0004.06,0009.73,0002.95
2022-06-05 08:58:00,,0819.5,5.01,0.00,30.1,28.9,00.0,39.0,31.9,16.4,0000.0,0004.04,0009.51,0002.94
2022-06-05 08:59:00,,0819.5,4.99,0.00,30.1,28.9,00.0,39.0,31.9,16.8,0000.0,0003.99,0009.23,0002.94
